Location: Ariel
(45.9570°N, 122.5700°W)
Time: 12:28:59
(UTC-07:00)

Transit 2A Rocket - Pass Details

Date: 19 July 2019
Orbit: 590 x 913 km, 66.7° (Epoch: 16 August)

Event Time Altitude Azimuth Distance (km) Brightness Sun altitude
Exits shadow 04:39:39 - 204° (SSW) 2,725 7.3 -8.9°
Reaches altitude 10° 04:40:03 10° 204° (SSW) 2,575 7.2 -8.9°
Maximum altitude 04:46:03 74° 120° (ESE) 908 5.5 -8.1°
Drops below altitude 10° 04:51:44 10° 36° (NE) 2,441 9.2 -7.4°
Sets 04:54:06 0° 35° (NE) 3,331 10.2 -7.0°
